KUIPER-00128

基本信息
目录编号:
65770
目录名称:
KUIPER-00150
国际标识:
2025-217J
轨道中心:
EARTH
卫星名称:
KUIPER-00150
卫星全名:
KUIPER-00128
卫星状态:
在轨 (已飞行132 天)
发射日期:
2025-09-25 UTC
国别 :
美国 (US)
星等 :
--
轨道信息
数据来源 国际轨道数据 AOE轨道数据
星历时间 2026-02-03T01:27:56+0800
1天前
查看轨道信息
2026-01-29T16:00:00+0800
5天前
查看轨道信息
半长轴 7007.318km 7007.307km
偏心率 0.0000917 0.0000083
轨道倾角 51.900° 51.897°
近地点辐角 117.228° 262.132°
升交点赤经 205.197° 224.639°
平近点角 242.878° 69.905°
近地点 628.538km 629.111km
远地点 629.824km 629.229km
周期 97.294分钟 97.294分钟
每日圈数 14.800456 14.800491
详细信息
使用方式:
暂无
2D轨道图
3D轨道图
轨道高度分析图
轨道倾角分析图
轨道综合分析图
查看轨道综合分析图